Find Starlink 31684

NORAD ID: 59492 Int'l Des: 2024-071 Owner: SPXS Country: US Constellation: starlink operational
LEOCIRCULAR

当前视图

正在加载3D地球...

About Starlink 31684

Starlink 31684 (NORAD 59492) is a starlink constellation satellite (v2 mini) launched Apr 13, 2024 by SPXS of US. It operates in LEO, CIRCULAR orbit with a mass of 730.00 kg.

即将过境

Passes for default location (London). Set your location on the main map for personalized predictions.

高度历史

Loading altitude history...

两行轨道根数

1 59492U 24071J 26264.23465825 .00001011 00000-0 46269-4 0 9992
2 59492 43.0020 323.0232 0001246 227.0850 132.9897 15.27578339138025
Epoch: Sep 21, 2026 • Age: 7 hours

当前状态

高度 481.7 km
远地点 / 近地点 N/A
速度 7.63 km/s
星下点 8.10°N, 57.38°W
发射日期 Apr 13, 2024
运行时间 2.4 years
类型 internet

技术详情

分类 Payload
质量 730.00 kg
干质量 700.00 kg
长度 0.30 m
跨度 29.00 m
形状 ? Box + pan
制造商 SPXS
平台类型 Starlink V2M
阶段状态 In Orbit
所有者/国家 SPXS/US

Most Searched